カタログに戻る

ATLAS 5 CENTAUR DEB

LostHEO
NORAD 44014·DEBRIS·🇺🇸 United States

打ち上げ Sep 17, 2014 から Cape Canaveral Space Force Station

Loading…

次のパス (今後24時間)

TLE

古いSource: Space-Track

元期: Sep 13, 2025, 10:19 UTC

1 44014U 14055BV  25256.42988009 -.00000226  00000-0  00000-0 0  9999
2 44014  20.6772 127.9355 5045248 195.9849 139.1901  1.92310067 48717

AllMySatでATLAS 5 CENTAUR DEBをリアルタイム追跡

Download on the App Store